Regional Weather Roundup
Issued by NWS

Home | Current Version | Previous Version | Graphics & Text | Print | Product List | Glossary On
Versions: 1 2 3 4 5 6 7 8 9 10 11 12 13 14 15 16 17 18 19 20 21 22 23 24 25 26 27 28 29 30 31 32 33 34 35 36 37 38 39 40 41 42 43 44 45 46 47 48 49 50
000
ASUS45 KPSR 210410
RWRAZ

ARIZONA REGIONAL HOURLY WEATHER ROUNDUP
NATIONAL WEATHER SERVICE PHOENIX AZ
900 PM MST MON OCT 20 2014

NOTE: FAIR INDICATES FEW OR NO CLOUDS BELOW 12,000 FEET WITH NO
SIGNIFICANT WEATHER AND/OR OBSTRUCTIONS TO VISIBILITY.

AZZ001>003-036-210500-
NORTHWEST ARIZONA

CITY           SKY/WX    TMP DP  RH WIND       PRES   REMARKS
BULLHEAD CITY  CLEAR     79  45  29 CALM      29.80R
KINGMAN        CLEAR     68  44  42 S10       29.96R
$$

AZZ004>008-015-016-018-210500-
NORTH CENTRAL ARIZONA

CITY           SKY/WX    TMP DP  RH WIND       PRES   REMARKS
GRAND CANYON   PTCLDY    42  33  70 CALM      30.16R
PRESCOTT       CLEAR     56  43  61 S8        30.07R
FLAGSTAFF      CLEAR     45  39  79 CALM      30.18R
PAYSON         CLEAR     59  45  58 CALM      30.11R
$$

AZZ009>014-017-210500-
NORTHEAST ARIZONA

CITY           SKY/WX    TMP DP  RH WIND       PRES   REMARKS
WINSLOW        CLEAR     56  42  59 S3        30.08R
SAINT JOHNS    CLEAR     52  46  80 VRB6      30.14R
SHOW LOW       PTCLDY    48  41  76 CALM      30.18S
$$

AZZ023-210500-
GREATER PHOENIX AREA

CITY           SKY/WX    TMP DP  RH WIND       PRES   REMARKS
PHOENIX        CLEAR     80  54  40 W3        29.83R
BUCKEYE          N/A     70  46  43 N7        29.84R
LUKE AFB       CLEAR     71  55  55 NW1       29.83R
DEER VALLEY    CLEAR     72  51  47 CALM      29.85R
SCOTTSDALE     CLEAR     78  50  37 N3        29.87R
MESA-GATEWAY   CLEAR     73  54  49 SE5       29.87R
CHANDLER       CLEAR     73  54  49 VRB5      29.85R
$$

AZZ027-028-210500-
SOUTHWEST MARICOPA COUNTY AND PINAL COUNTY

CITY           SKY/WX    TMP DP  RH WIND       PRES   REMARKS
CASA GRANDE    CLEAR     72  46  40 CALM      29.86R
GILA BEND      CLEAR     75  50  41 S1        29.84R
$$

AZZ503-504-507>509-210500-
SOUTHEAST ARIZONA

CITY           SKY/WX    TMP DP  RH WIND       PRES   REMARKS
TUCSON         CLOUDY    75  50  41 S3        29.94R
DAVIS-MONTHAN  PTCLDY    71  51  48 E3        29.93R
NOGALES        CLEAR     61  47  59 CALM      30.01R
SIERRA VISTA   CLEAR     61  45  55 S9        30.05R
DOUGLAS        CLEAR     60  46  59 CALM      30.04R
SAFFORD        CLEAR     64  50  60 E9        29.99R
$$

AZZ020-021-025-026-031-210500-
SOUTHWEST ARIZONA

CITY           SKY/WX    TMP DP  RH WIND       PRES   REMARKS
YUMA           CLEAR     82  52  35 S5        29.77R
$$

CAZ031-033-041-043-047-048-061-210500-
SOUTHERN CALIFORNIA

CITY           SKY/WX    TMP DP  RH WIND       PRES   REMARKS
DOWNTOWN L.A.  PTCLDY    67  61  81 CALM      29.89S
L.A. AIRPORT   PTCLDY    67  63  87 SW6       29.89S
SAN DIEGO      MOCLDY    70  61  73 NW5       29.92R
BURBANK        PTCLDY    67  59  75 SE5       29.90R
ONTARIO        PTCLDY    66  59  78 W7        29.91R
RIVERSIDE      CLEAR     67  60  78 W5        29.91R
PALM SPRINGS   CLEAR     83  53  35 W5        29.81R
EL CENTRO NAS  PTCLDY    80  52  37 W6        29.76R
IMPERIAL       CLEAR     78  55  44 W10       29.76R
BLYTHE         CLEAR     80  45  28 NE3       29.78R
NEEDLES        CLEAR     82  43  25 SW6       29.80R
$$

NVZ020-UTZ003-210500-
SOUTHERN NEVADA-UTAH

CITY           SKY/WX    TMP DP  RH WIND       PRES   REMARKS
LAS VEGAS      PTCLDY    79  39  23 S12       29.81R
SALT LAKE CITY PTCLDY    61  38  42 SE7       29.91R
$$

NMZ009-TXZ055-210500-
NEW MEXICO-WEST TEXAS

CITY           SKY/WX    TMP DP  RH WIND       PRES   REMARKS
ALBUQUERQUE    CLOUDY    58  46  64 E9        30.18S
EL PASO        CLOUDY    62  53  72 CALM      30.07S
$$


........................KEY........................
SKY/WX - SKY CONDITION/WEATHER
TMP    - TEMPERATURE IN FAHRENHEIT
DP     - DEW POINT IN FAHRENHEIT
RH     - RELATIVE HUMIDITY IN PERCENT
WIND   - DIRECTION AND SPEED IN MILES PER HOUR (MPH)
VRB    - VARIABLE WIND DIRECTION
PRES   - MEAN SEA LEVEL PRESSURE IN INCHES OF MERCURY
         F - FALLING PRESSURE   R - RISING PRESSURE
         S - STEADY PRESSURE
VSB    - VISIBILITY IN MILES
HX     - HEAT INDEX IN FAHRENHEIT
WCI    - WIND CHILL INDEX IN FAHRENHEIT
TC     - TEMPERATURE IN CELSIUS WHICH IS ALSO KNOWN AS
         TEMPERATURE IN CENTIGRADE
AFB    - AIR FORCE BASE
         LUKE AFB IS LUKE AIR FORCE BASE
         DAVIS-MONTHAN IS DAVIS-MONTHAN AIR FORCE BASE
NAS    - NAVAL AIR STATION
         EL CENTRO NAS IS EL CENTRO NAVAL AIR STATION
N/A    - NOT AVAILABLE



USA.gov is the U.S. government's official web portal to all federal, state and local government web resources and services.